Location: Casa Rossa
(45.2389°N, 12.2056°E)
Time: 03:58:43
(UTC+00:00)

Cosmos 1570 Rocket - Pass Details

Date: 14 July 2020
Orbit: 763 x 788 km, 74.1° (Epoch: 11 August)

Event Time Altitude Azimuth Distance (km) Brightness Sun altitude
Rises 02:36:24 0° 339° (NNW) 3,247 7.6 -9.2°
Reaches altitude 10° 02:38:47 10° 340° (NNW) 2,319 6.8 -8.9°
Maximum altitude 02:44:04 84° 68° (ENE) 782 4.1 -8.3°
Drops below altitude 10° 02:49:21 10° 158° (SSE) 2,319 6.3 -7.6°
Sets 02:51:43 0° 159° (SSE) 3,246 7.0 -7.3°
